• în România
  • Lista ţărilor
  • Pe 7 zile
  • Temperatura apei
  • Hartă satelitară
  • Meteo pe hartă
  • Widget-uri
  • user-avatar
    Intrare

    Meteo pe oră la Mayrhofen

    Astăzi, 18 Ianuarie, Joi

    Timp Temperatura Precipitaţii Vânt Presiune Umiditate
    00:00 -12°C° 0,5 mm 3 m/s 610 mmHg 94%
    01:00 -10°C° 0 mm 2 m/s 610 mmHg 94%
    02:00 -10°C° 0,4 mm 2 m/s 610 mmHg 94%
    03:00 -10°C° 0,4 mm 2 m/s 610 mmHg 93%
    04:00 -10°C° 0,4 mm 2 m/s 610 mmHg 93%
    05:00 -10°C° 0,3 mm 2 m/s 610 mmHg 92%
    06:00 -10°C° 0,3 mm 2 m/s 609 mmHg 90%
    07:00 -10°C° 0 mm 2 m/s 609 mmHg 88%
    08:00 -10°C° 0,4 mm 3 m/s 609 mmHg 88%
    09:00 -9°C° 0,4 mm 3 m/s 609 mmHg 88%
    10:00 -8°C° 0,4 mm 3 m/s 609 mmHg 88%
    11:00 -6°C° 0,2 mm 3 m/s 609 mmHg 87%
    12:00 -5°C° 0,2 mm 3 m/s 609 mmHg 87%
    13:00 -4°C° 0,2 mm 3 m/s 609 mmHg 86%
    14:00 -4°C° 0,1 mm 3 m/s 609 mmHg 87%
    15:00 -2°C° 0,1 mm 2 m/s 609 mmHg 88%
    16:00 -2°C° 0,1 mm 2 m/s 608 mmHg 89%
    17:00 -3°C° 0,1 mm 2 m/s 608 mmHg 88%
    18:00 -4°C° 0,1 mm 2 m/s 608 mmHg 87%
    19:00 -5°C° 0,1 mm 3 m/s 608 mmHg 86%
    20:00 -4°C° 0,3 mm 2 m/s 608 mmHg 87%
    21:00 -4°C° 0,3 mm 2 m/s 608 mmHg 88%
    22:00 -4°C° 0,3 mm 2 m/s 608 mmHg 89%
    23:00 -4°C° 0,6 mm 2 m/s 608 mmHg 90%

    Mâine, 19 Ianuarie, Vineri

    Timp Temperatura Precipitaţii Vânt Presiune Umiditate
    00:00 -4°C° 0,6 mm 2 m/s 608 mmHg 91%
    01:00 -2°C° 0,6 mm 1 m/s 608 mmHg 91%
    02:00 -4°C° 0,8 mm 2 m/s 608 mmHg 91%
    03:00 -4°C° 0,8 mm 2 m/s 608 mmHg 92%
    04:00 -4°C° 0,8 mm 2 m/s 607 mmHg 92%
    05:00 -4°C° 1,3 mm 2 m/s 608 mmHg 93%
    06:00 -4°C° 1,3 mm 2 m/s 608 mmHg 94%
    07:00 -4°C° 1,3 mm 2 m/s 608 mmHg 96%
    08:00 -4°C° 1,1 mm 2 m/s 608 mmHg 96%
    09:00 -4°C° 1,1 mm 2 m/s 609 mmHg 95%
    10:00 -4°C° 1,1 mm 2 m/s 609 mmHg 95%
    11:00 -4°C° 0,9 mm 2 m/s 609 mmHg 95%
    12:00 -4°C° 0,9 mm 2 m/s 609 mmHg 95%
    13:00 -4°C° 0,9 mm 2 m/s 609 mmHg 95%
    14:00 -5°C° 0,5 mm 2 m/s 609 mmHg 94%
    15:00 -5°C° 0,5 mm 2 m/s 609 mmHg 94%
    16:00 -6°C° 0,5 mm 2 m/s 609 mmHg 93%
    17:00 -7°C° 0,2 mm 2 m/s 609 mmHg 93%
    18:00 -8°C° 0,2 mm 2 m/s 609 mmHg 93%
    19:00 -9°C° 0,2 mm 2 m/s 609 mmHg 94%
    20:00 -10°C° 0,1 mm 2 m/s 610 mmHg 93%
    21:00 -10°C° 0,1 mm 2 m/s 610 mmHg 93%
    22:00 -12°C° 0,1 mm 2 m/s 610 mmHg 92%
    23:00 -12°C° 0,1 mm 2 m/s 610 mmHg 91%

    Poimâine, 20 Ianuarie, Sâmbătă

    Timp Temperatura Precipitaţii Vânt Presiune Umiditate
    00:00 -10°C° 0,1 mm 1 m/s 610 mmHg 90%
    01:00 -10°C° 0,1 mm 1 m/s 610 mmHg 89%
    02:00 -10°C° 0,1 mm 1 m/s 610 mmHg 89%
    03:00 -10°C° 0,1 mm 1 m/s 610 mmHg 88%
    04:00 -12°C° 0,1 mm 2 m/s 610 mmHg 87%
    05:00 -10°C° 0,1 mm 1 m/s 609 mmHg 87%
    06:00 -10°C° 0,1 mm 1 m/s 609 mmHg 87%
    07:00 -10°C° 0,1 mm 1 m/s 609 mmHg 87%
    08:00 -9°C° 0,1 mm 1 m/s 610 mmHg 86%
    09:00 -10°C° 0,1 mm 2 m/s 610 mmHg 86%
    10:00 -9°C° 0,1 mm 2 m/s 610 mmHg 85%
    11:00 -8°C° 0 mm 2 m/s 610 mmHg 83%
    12:00 -7°C° 0 mm 2 m/s 609 mmHg 80%
    13:00 -5°C° 0 mm 2 m/s 609 mmHg 78%
    14:00 -6°C° 0,1 mm 2 m/s 608 mmHg 81%
    15:00 -6°C° 0,1 mm 2 m/s 607 mmHg 84%
    16:00 -7°C° 0,1 mm 2 m/s 606 mmHg 87%
    17:00 -7°C° 0,5 mm 2 m/s 606 mmHg 89%
    18:00 -8°C° 0,5 mm 2 m/s 605 mmHg 91%
    19:00 -9°C° 0,5 mm 2 m/s 605 mmHg 93%
    20:00 -8°C° 1,1 mm 2 m/s 605 mmHg 94%
    21:00 -8°C° 1,1 mm 2 m/s 605 mmHg 95%
    22:00 -8°C° 1,1 mm 2 m/s 605 mmHg 96%
    23:00 -8°C° 1,4 mm 2 m/s 606 mmHg 96%

    21 Ianuarie, Duminică

    Timp Temperatura Precipitaţii Vânt Presiune Umiditate
    00:00 -9°C° 1,4 mm 3 m/s 607 mmHg 96%
    01:00 -9°C° 1,4 mm 3 m/s 607 mmHg 97%
    02:00 -10°C° 0,7 mm 3 m/s 608 mmHg 96%
    03:00 -10°C° 0,7 mm 3 m/s 608 mmHg 95%
    04:00 -12°C° 0,7 mm 3 m/s 609 mmHg 95%
    05:00 -13°C° 0,5 mm 3 m/s 609 mmHg 94%
    06:00 -13°C° 0,5 mm 3 m/s 610 mmHg 94%
    07:00 -13°C° 0,5 mm 3 m/s 610 mmHg 94%
    08:00 -13°C° 0,2 mm 3 m/s 611 mmHg 93%
    09:00 -13°C° 0,2 mm 3 m/s 611 mmHg 92%
    10:00 -12°C° 0,2 mm 3 m/s 612 mmHg 90%
    11:00 -12°C° 0 mm 3 m/s 612 mmHg 86%
    12:00 -9°C° 0 mm 2 m/s 613 mmHg 82%
    13:00 -9°C° 0 mm 2 m/s 613 mmHg 78%
    14:00 -9°C° 0,1 mm 2 m/s 613 mmHg 81%
    15:00 -9°C° 0,1 mm 2 m/s 613 mmHg 84%
    16:00 -8°C° 0,1 mm 1 m/s 613 mmHg 86%
    17:00 -8°C° 0,3 mm 1 m/s 613 mmHg 87%
    18:00 -8°C° 0,3 mm 1 m/s 613 mmHg 89%
    19:00 -9°C° 0,3 mm 1 m/s 613 mmHg 90%
    20:00 -8°C° 0,7 mm 1 m/s 613 mmHg 91%
    21:00 -7°C° 0,7 mm 1 m/s 614 mmHg 92%
    22:00 -6°C° 0,7 mm 1 m/s 614 mmHg 93%
    23:00 -6°C° 1,5 mm 1 m/s 614 mmHg 94%

    22 Ianuarie, Luni

    Timp Temperatura Precipitaţii Vânt Presiune Umiditate
    00:00 -4°C° 1,5 mm 1 m/s 614 mmHg 95%
    01:00 -3°C° 1,5 mm 1 m/s 614 mmHg 96%
    02:00 -3°C° 3,1 mm 1 m/s 614 mmHg 96%
    03:00 -2°C° 3,1 mm 1 m/s 614 mmHg 96%
    04:00 -2°C° 3,1 mm 1 m/s 614 mmHg 96%
    05:00 -3°C° 3,1 mm 2 m/s 614 mmHg 96%
    06:00 -3°C° 3,1 mm 2 m/s 614 mmHg 97%
    07:00 -2°C° 3,1 mm 2 m/s 615 mmHg 97%
    08:00 -2°C° 2,5 mm 2 m/s 615 mmHg 97%
    09:00 -2°C° 2,5 mm 2 m/s 616 mmHg 97%
    10:00 -1°C° 2,5 mm 2 m/s 616 mmHg 97%
    11:00 -1°C° 2,1 mm 2 m/s 616 mmHg 97%
    12:00 -1°C° 2,1 mm 2 m/s 617 mmHg 97%
    13:00 +1°C° 2,1 mm 2 m/s 617 mmHg 98%
    14:00 +1°C° 0,7 mm 2 m/s 617 mmHg 97%
    15:00 +1°C° 0,7 mm 2 m/s 617 mmHg 97%
    16:00 +1°C° 0,7 mm 2 m/s 617 mmHg 96%
    17:00 -1°C° 0,6 mm 2 m/s 618 mmHg 96%
    18:00 -1°C° 0,6 mm 2 m/s 618 mmHg 95%
    19:00 -1°C° 0,6 mm 2 m/s 618 mmHg 94%
    20:00 -1°C° 1,1 mm 2 m/s 618 mmHg 94%
    21:00 -1°C° 1,1 mm 2 m/s 618 mmHg 94%
    22:00 -1°C° 1,1 mm 2 m/s 619 mmHg 94%
    23:00 -1°C° 1,4 mm 2 m/s 619 mmHg 94%

    23 Ianuarie, Marţi

    Timp Temperatura Precipitaţii Vânt Presiune Umiditate
    00:00 -1°C° 1,4 mm 2 m/s 619 mmHg 94%
    01:00 -1°C° 1,4 mm 2 m/s 619 mmHg 95%
    02:00 -1°C° 0,2 mm 2 m/s 619 mmHg 95%
    03:00 -1°C° 0,2 mm 2 m/s 619 mmHg 95%
    04:00 -2°C° 0,2 mm 2 m/s 619 mmHg 95%
    05:00 -2°C° 0 mm 2 m/s 619 mmHg 94%
    06:00 -2°C° 0 mm 2 m/s 620 mmHg 94%
    07:00 -2°C° 0 mm 2 m/s 620 mmHg 94%
    08:00 -2°C° 0 mm 2 m/s 620 mmHg 95%
    09:00 -1°C° 0 mm 2 m/s 621 mmHg 96%
    10:00 -1°C° 0 mm 2 m/s 621 mmHg 97%
    11:00 +1°C° 0,1 mm 2 m/s 621 mmHg 97%
    12:00 +1°C° 0,1 mm 2 m/s 621 mmHg 98%
    13:00 +1°C° 0,1 mm 2 m/s 621 mmHg 99%
    14:00 +1°C° 0 mm 2 m/s 622 mmHg 98%
    15:00 +2°C° 0 mm 1 m/s 622 mmHg 97%
    16:00 +2°C° 0 mm 1 m/s 622 mmHg 96%
    17:00 +1°C° 0 mm 1 m/s 622 mmHg 94%
    18:00 0°C° 0 mm 1 m/s 622 mmHg 92%
    19:00 -4°C° 0 mm 2 m/s 621 mmHg 90%
    20:00 -2°C° 0 mm 1 m/s 621 mmHg 89%
    21:00 -2°C° 0 mm 1 m/s 622 mmHg 87%
    22:00 -2°C° 0 mm 1 m/s 622 mmHg 86%
    23:00 -2°C° 0 mm 1 m/s 621 mmHg 84%
    Arată mai mult